#timestamp,LO_Frequency,Hit,StdDev 
1501923615.8,286047000.8,N,2.1
1501923635.7,286046998.1,N,2.2
1501923655.5,286046999.4,N,2.2
1501923675.4,286046996.6,N,2.4
1501923695.2,286046996.6,N,2.5
1501923715.0,286046999.6,N,2.4
1501923715.9,286046999.6,N,2.4
1501923735.8,286046999.1,N,2.3
1501923755.6,286046996.9,N,2.4
1501923775.5,286046999.5,N,2.3
1501923795.3,286046999.0,N,2.3
1501923815.1,286046996.8,N,2.3
1501923835.9,286046997.3,N,2.3
1501923855.7,286046997.6,N,2.3
1501923875.6,286046997.6,N,2.3
1501923895.4,286046997.4,N,2.3
1501923915.2,286046996.8,N,2.3
1501923935.1,286046996.8,N,2.3
1501923936.0,286046996.8,N,2.3
1501923955.8,286046996.5,N,2.3
1501923975.7,286046997.1,N,2.3
1501923995.5,286046996.8,N,2.3
1501924015.3,286046994.9,N,2.5
1501924035.2,286046997.3,N,2.5
1501924055.0,286046997.1,N,2.4
1501924055.9,286046997.1,N,2.4
1501924075.8,286046996.6,N,2.3
1501924095.6,286046997.5,N,2.1
1501924115.4,286046995.2,N,1.8
1501924135.3,286046995.9,N,1.3
1501924155.1,286046995.9,Y,0.0
1501924175.9,286046996.5,P,0.5
1501924195.7,286046996.9,P,0.4
1501924215.5,286046997.4,P,0.4
1501924235.4,286046997.3,Y,0.0
1501924255.2,286047000.3,P,1.6
1501924275.1,286047000.8,N,1.7
1501924276.0,286047000.8,N,1.6
1501924295.8,286046998.1,N,1.5
1501924315.6,286047001.1,N,1.5
1501924335.5,286047001.2,N,1.5
1501924355.3,286047000.8,N,1.5
1501924375.2,286047000.1,N,1.4
1501924395.9,286047000.3,N,1.3
1501924415.7,286047000.8,N,1.3
1501924435.6,286046999.0,N,1.2
1501924455.4,286046996.5,N,1.5
1501924475.3,286046999.2,N,1.5
1501924495.1,286046998.3,N,1.5
1501924496.0,286046998.3,N,1.5
1501924515.8,286046998.9,N,1.4
1501924535.7,286046999.1,N,1.4
1501924555.5,286046999.5,N,1.3
1501924575.4,286046996.5,N,1.5
1501924595.2,286046997.4,N,1.5
1501924615.0,286046997.8,N,1.5
1501924615.9,286046997.8,N,1.5
1501924635.8,286046997.5,N,1.5
1501924655.6,286046997.7,N,1.5
1501924675.5,286046995.5,Y,0.0
1501924695.3,286046996.8,P,1.1
1501924715.1,286046997.5,N,0.9
1501924735.9,286046995.0,P,1.4
1501924755.7,286046997.7,N,1.3
1501924775.5,286046999.2,N,1.4
1501924795.4,286046999.4,N,1.5
1501924815.2,286046997.4,N,1.4
1501924835.1,286046995.4,Y,0.0
1501924836.0,286046995.4,P,1.2
1501924855.8,286046999.0,N,1.5
1501924875.6,286046998.9,N,1.4
1501924895.5,286046999.1,N,1.4
1501924915.3,286046996.8,N,1.4
1501924935.2,286046999.6,N,1.4
1501924955.9,286046998.7,N,1.3
1501924975.7,286046998.6,N,1.3
1501924995.6,286047000.8,N,1.4
1501925015.4,286047000.4,N,1.5
1501925035.3,286046998.4,N,1.4
1501925055.1,286046999.2,N,1.4
1501925056.0,286046999.2,N,1.3
1501925075.8,286046998.6,N,1.3
1501925095.7,286046999.3,N,1.2
1501925115.5,286046999.3,N,1.2
1501925135.3,286046999.5,N,1.2
1501925155.2,286046998.8,N,1.2
1501925175.0,286046996.7,N,1.2
1501925175.9,286046996.7,N,1.3
1501925195.8,286046996.9,N,1.3
1501925215.6,286046999.6,N,1.3
1501925235.5,286046998.8,N,1.3
1501925255.3,286046999.1,N,1.2
1501925275.1,286046999.0,N,1.2
1501925295.9,286046998.7,N,1.2
1501925315.7,286046999.0,N,1.2
1501925335.5,286046999.4,N,1.2
1501925355.4,286046998.9,N,1.1
1501925375.2,286046998.4,N,1.1
1501925395.1,286046998.8,N,0.9
1501925396.0,286046998.8,N,0.9
1501925415.8,286046998.9,N,0.9
1501925435.6,286046998.9,N,0.9
1501925455.5,286046998.7,N,0.9
1501925475.3,286046998.8,N,0.9
1501925495.2,286046998.2,N,0.9
1501925515.9,286046998.7,N,0.9
1501925535.7,286047000.7,N,0.9
1501925555.6,286047001.1,N,0.9
1501925575.4,286047000.8,N,1.0
1501925595.3,286046998.9,N,1.0
1501925615.1,286047000.7,N,1.0
1501925616.0,286047000.7,N,1.1
1501925635.8,286047000.2,N,1.1
1501925655.7,286047000.6,N,1.1
1501925675.5,286047000.8,N,1.2
1501925695.4,286047001.0,N,1.2
1501925715.2,286047001.9,N,1.2
1501925735.0,286047002.2,N,1.2
1501925735.9,286047002.2,N,1.2
1501925755.8,286047000.0,N,1.2
1501925775.6,286046999.7,N,1.2
1501925795.5,286047002.7,N,1.3
1501925815.3,286047000.1,N,1.3
1501925835.1,286047001.6,N,1.3
1501925855.9,286047002.6,N,1.3
1501925875.7,286047002.1,N,1.4
1501925895.5,286047003.9,N,1.5
1501925915.4,286047003.6,N,1.5
1501925935.2,286047003.9,N,1.6
1501925955.1,286047003.2,N,1.6
1501925956.0,286047003.2,N,1.6
1501925975.8,286047003.7,N,1.7
1501925995.6,286047003.8,N,1.6
1501926015.5,286047003.1,N,1.6
1501926035.3,286047003.8,N,1.5
1501926055.2,286047004.1,N,1.5
1501926075.9,286047003.2,N,1.5
1501926095.7,286047004.2,N,1.5
1501926115.6,286047003.6,N,1.5
1501926135.4,286047003.7,N,1.4
1501926155.3,286047003.0,N,1.4
1501926175.1,286047003.0,N,1.4
1501926176.0,286047003.0,N,1.3
1501926195.8,286047003.5,N,1.3
1501926215.7,286047003.8,Y,0.0
1501926235.5,286047002.3,P,0.2
1501926255.4,286046999.7,N,1.3
1501926275.2,286047002.3,N,1.2
1501926295.0,286047002.5,N,1.1
1501926295.9,286047002.5,N,1.0
1501926315.8,286047002.3,N,1.0
1501926335.6,286047002.1,N,0.9
1501926355.5,286047001.9,N,0.9
1501926375.3,286047002.2,N,0.8
1501926395.1,286047001.6,N,0.8
1501926415.9,286047002.0,N,0.7
1501926435.7,286047001.9,N,0.7
1501926455.6,286047001.4,N,0.7
1501926475.4,286047001.3,N,0.7
1501926495.2,286047004.2,Y,0.0
1501926515.1,286047000.3,P,0.8
1501926516.0,286047000.3,N,0.8
1501926535.8,286046999.8,N,0.8
1501926555.7,286047002.7,Y,0.0
1501926575.5,286046999.9,P,0.3
1501926595.4,286046999.8,N,0.3
1501926615.2,286047002.4,P,1.0
1501926635.0,286047002.6,N,1.2
1501926635.9,286047002.6,N,1.2
1501926655.8,286046999.8,N,1.3
1501926675.6,286047000.5,N,1.2
1501926695.5,286047000.0,N,1.2
1501926715.3,286047000.0,N,1.2
1501926735.1,286047000.0,N,1.1
1501926755.9,286047002.8,N,1.2
1501926775.7,286047002.2,N,1.2
1501926795.6,286047002.8,N,1.3
1501926815.4,286046999.8,N,1.3
1501926835.2,286046999.9,N,1.3
1501926855.1,286047000.2,N,1.2
1501926856.0,286047000.2,N,1.2
1501926875.8,286047000.2,N,1.2
1501926895.7,286046999.9,N,1.2
1501926915.5,286047002.7,N,1.2
1501926935.3,286047002.2,N,1.2
1501926955.2,286047002.4,N,1.2
1501926975.0,286047001.9,N,1.2
1501926975.9,286047001.9,N,1.2
1501926995.8,286047002.5,N,1.2
1501927015.6,286047002.0,N,1.2
1501927035.4,286047002.0,N,1.2
1501927055.3,286047002.7,N,1.2
1501927075.1,286047002.2,N,1.2
1501927095.8,286046999.8,N,1.2
1501927115.7,286047002.6,N,1.2
1501927135.5,286047002.1,N,1.2
1501927155.4,286047002.3,N,1.2
1501927175.2,286047002.0,N,1.2
1501927195.0,286047002.4,N,1.2
1501927196.0,286047002.4,N,1.1
